Погода в Борисове

Погода в Борисове : погода сейчас, прогноз погоды и архив. Всё, что Вы хотите узнать о погоде в Борисове!

Хотите узнать прогноз погоды в Борисове? Тогда Вам сюда: Погода в Борисове

Поиск расширенной информации на нашем сайте:

Другие новости

Новости СМИ2

Главная страница сайта

Новости сайта

03.07.2017

Напоминаем, что на нашем специализированном сайте Метеоцентр.Азия вы можете получить высокодетализированные автоматические прогнозы погоды по пунктам России, СНГ и мира в авиационном формате (включающие направление и скорость ветра, видимость, явления погоды, количество и форму облачности, нижнюю и верхнюю границу облачности).


Погода в Борисове - сегодня

Время (UTC), дата Ветер
(°,м/с) 
Видим.   Явления Облачность Т
(°С)
Тd
(°С)
f(%) Тe
(°С)
Pmin
(гПа)
dP
(гПа)
Po
(мм)
O2
(г/м3)
Тmin Tmax R s Состояние
почвы
15 17.06.18 250 (З) 35000 м    5/3 1000 м верхняя 
[Sc|Ci fib]
+18.8 +13.3 70 +26  1016.4  -0.7  746  279           
18 17.06.18 тихо ()   35000 м    5/0 верхняя 
[Ci fib]
+16.5 +13.5 82 +23  1016.2  -0.4  746  281    +19.9       
21 17.06.18 тихо ()   13000 м    5/0 верхняя 
[Ci fib]
+13 +12.4 96 +18  1016.8  0.3  746  284           
00 18.06.18 тихо ()   15000 м    3/0 верхняя 
[Ci fib]
+11.3 +10.9 97 +14  1016.7  -0.2  746  286           
06 18.06.18 тихо ()   20000 м    9/0 верхняя 
[Cs]
+19.4 +14.4 73 +27  1016.2  0.4  746  278  +10.1         
09 18.06.18 170 (Ю) 35000 м    8/4 600 м средняя, верхняя 
[Cu med, cong|Ac trans|Cs]
+25 +14.1 51 +32  1015.5  -0.2  746  272           
12 18.06.18 260 (З) 35000 м    9/5 600 м верхняя 
[Cu med, cong|Cs]
+27.1 +13.5 43 +33  1015.1  -0.2  745  271           
15 18.06.18 330 (СЗ) 35000 м    8/1 1000 м верхняя 
[Sc diur, vesp|Ci sp]
+26.9 +10.5 36 +29  1014.4  -0.7  745  271           
18 18.06.18 тихо ()   35000 м    5/3 1000 м верхняя 
[Sc|Ci sp]
+24.2 +12.7 49 +29  1014.8  0.1  745  273    +27.8       
21 18.06.18 тихо ()   35000 м    3/0 верхняя 
[Ci sp]
+19.8 +13.4 67 +26  1015.5  0.3  745  277           
00 19.06.18 350 (С) 35000 м    10/10 1000 м 
[Sc]
+18.9 +14.2 74 +27  1015.5  745  278           
06 19.06.18 010 (С) 35000 м  {ливн. осадки}  8/5 1000 м верхняя 
[Sc|Cc]
+21 +14.5 66 +29  1016.3  0.2  746  276  +17.6    0.0     
09 19.06.18 190 (Ю) 35000 м    3/0 средняя 
[Ac trans]
+25.1 +13.8 49 +32  1015.3  -0.6  745  272           
12 19.06.18 240 (ЮЗ) 35000 м    8/8 1000 м 
[Sc]
+26.3 +14.1 47 +34  1014  -1.2  745  271           
15 19.06.18 280 (З) 35000 м    9/9 600 м кучево-дожд. 
[Cb calv]
+25.4 +14.1 50 +33  1012.6  -1.4  743  271           
18 19.06.18 290 (З) 35000 м    9/3 1000 м средняя 
[Sc|Ac trans]
+23 +10.9 46 +26  1012.9  0.1  744  274    +27.5       
21 19.06.18 290 (З) 35000 м    9/9 1000 м 
[Sc]
+19.5 +11.4 59 +23  1014.8  1.5  745  278           
00 20.06.18 290 (З) 35000 м    3/0 верхняя 
[Ci fib]
+16.3 +9.6 64 +18  1016.1  745  282           
06 20.06.18 240 (ЮЗ) 35000 м    8/8 600 м 
[Sc]
+18.3 +12.3 68 +23  1016.9  0.3  746  279  +13.6         
12 20.06.18 260 (З) 3-10{10}  35000 м    1/1 600 м 
[Cu hum]
+24.4 +7.7 34 +24  1015.2  -0.7  745  274           
15 20.06.18 300 (СЗ) 2{10}  20000 м    ясно 
+24.4 +4.6 28 +24  1014.8  -0.5  745  275           
18 20.06.18 280 (З) 35000 м    ясно 
+21.2 +5.9 37 +21  1014.9  745  278    +25.2       
21 20.06.18 260 (З) 35000 м    ясно 
+17.1 +5.8 47 +19  1016.2  0.9  746  282           
00 21.06.18 тихо ()   35000 м    ясно 
+14.4 +6.7 60 +14  1016.5  746  284           
09 21.06.18 220 (ЮЗ) 35000 м    9/6 1000 м средняя 
[Sc|Ac trans]
+24.6 +10.3 40 +26  1013.3  -1.6  744  273           
Время (UTC), дата Ветер
(°,м/с) 
Видим.   Явления Облачность Т
(°С)
Тd
(°С)
f(%) Тe
(°С)
Pmin
(гПа)
dP
(гПа)
Po
(мм)
O2
(г/м3)
Тmin Tmax R s Состояние
почвы

Для получения пояснительной информации подведите курсор к названию столбца.

ПОГОДА в Борисове - архив

Всё, что Вы хотите узнать о погоде в Борисове - удобно и подробно!

Выберите нужную дату (начиная с 1 января 2015* года) и нажмите кнопку "Найти".
Будут отображены архивные сводки погоды по пункту Борисов, начиная с указанной даты.


Отображать данные в формате CSV (для использования в таблицах Excel)


Внимание! Наш архив погоды предназначен исключительно для личного некоммерческого использования в познавательных целях. Если Вам необходимы официальные справки о состоянии погоды (для производственных, юридических, коммерческих и т.п. целей), обращайтесь в органы Росгидромета.

*Примечание: данная дата относится к архиву по метеостанциям СССР (Россия, СНГ, Балтия).
Архив по метеостанциям Зарубежной Европы и Азии (кроме Китая) хранится 10 дней, по другим регионам земного шара (Китай, Африка, Америка, Австралия, Океания) - 1 день.

Борисов - район местоположения метеостанции


Название, широта, долгота, высота метеостанции:
Борисов 54.3°ш. 28.5°д. 189 м над ур. моря [Беларусь]

Дополнительная информация

В oтличие oт бoльшинства пoгoдных сайтoв мы публикуем пoдрoбную метеoинфoрмацию в детальнoм прoфессиoнальнoм фoрмате.

Характеристики температуры и влажнoсти вoздуха измеряются на высoте 2 м в тени вдали oт зданий и деревьев.
Скoрoсть ветра измеряется на высoте 10 м (на урoвне рoста челoвека скoрoсть ветра ниже в 1.5-2 раза). Если метеoстанция нахoдится в гoрoде или в лесу, тo скoрoсть ветра занижена на 2-4 м/с пo сравнению с oткрытым местoм. Скoрoсть ветра над акватoриями крупных рек и oзёр, а также на вершинах хoлмoв на 2-5 м/с выше, чем в oбычных услoвиях.
Атмoсфернoе давление в разных тoчках местнoсти мoжет значительнo oтличаться oт давления на метеoстанции, в зависимoсти oт услoвий рельефа (при пoдъёме на 10 м давление пoнижается примернo на 1 мм рт.ст.).